Savannah - Tybee Island Weather Center

Moon Phase Calendar



Online Cameras

 


      

Current Conditions in Chatham County
1/18/2022 7:43:33 AM

33°F
Feels Like 28
Clear
Humidity
83%
Pressure
30.15"
Wind
4.6 mph (W)
Dew Point
29°F
UV Index
0/10 (Low)
Visibility
6 mi

Hourly Forecast

Date & Time Tue, Jan 18
7:00 AM
Tue, Jan 18
8:00 AM
Tue, Jan 18
9:00 AM
Tue, Jan 18
10:00 AM
Tue, Jan 18
11:00 AM
Tue, Jan 18
12:00 PM
Tue, Jan 18
1:00 PM
Tue, Jan 18
2:00 PM
Tue, Jan 18
3:00 PM
Tue, Jan 18
4:00 PM
Tue, Jan 18
5:00 PM
Tue, Jan 18
6:00 PM
Tue, Jan 18
7:00 PM
Tue, Jan 18
8:00 PM
Tue, Jan 18
9:00 PM
Tue, Jan 18
10:00 PM
Tue, Jan 18
11:00 PM
Wed, Jan 19
12:00 AM
Wed, Jan 19
1:00 AM
Wed, Jan 19
2:00 AM
Wed, Jan 19
3:00 AM
Wed, Jan 19
4:00 AM
Wed, Jan 19
5:00 AM
Wed, Jan 19
6:00 AM
Wed, Jan 19
7:00 AM
Wed, Jan 19
8:00 AM
Wed, Jan 19
9:00 AM
Wed, Jan 19
10:00 AM
Wed, Jan 19
11:00 AM
Wed, Jan 19
12:00 PM
Wed, Jan 19
1:00 PM
Wed, Jan 19
2:00 PM
Wed, Jan 19
3:00 PM
Wed, Jan 19
4:00 PM
Wed, Jan 19
5:00 PM
Wed, Jan 19
6:00 PM
Wed, Jan 19
7:00 PM
Wed, Jan 19
8:00 PM
Wed, Jan 19
9:00 PM
Wed, Jan 19
10:00 PM
Wed, Jan 19
11:00 PM
Thu, Jan 20
12:00 AM
Thu, Jan 20
1:00 AM
Thu, Jan 20
2:00 AM
Thu, Jan 20
3:00 AM
Thu, Jan 20
4:00 AM
Thu, Jan 20
5:00 AM
Thu, Jan 20
6:00 AM
Condition
Clear

Clear

Clear

Clear

Clear

Clear

Clear

Clear

Clear

Clear

Clear

Clear

Clear

Clouds

Clouds

Clouds

Clouds

Clouds

Clouds

Clouds

Clouds

Clouds

Clouds

Clouds

Clouds

Clear

Clear

Clear

Clouds

Clouds

Clouds

Clouds

Clouds

Clouds

Clouds

Clouds

Clouds

Clouds

Clouds

Clouds

Clouds

Clouds

Clouds

Clouds

Clouds

Clouds

Clouds

Clouds
Temperature 33°F33°F34°F36°F41°F46°F52°F54°F54°F54°F51°F45°F44°F43°F43°F43°F43°F43°F43°F42°F42°F42°F42°F42°F41°F42°F48°F53°F57°F59°F61°F61°F61°F60°F56°F51°F50°F50°F50°F50°F50°F50°F49°F49°F48°F48°F48°F48°F
Feels Like 28°F29°F29°F32°F37°F44°F48°F50°F51°F50°F48°F45°F42°F42°F43°F43°F43°F43°F43°F42°F42°F42°F42°F42°F41°F42°F48°F51°F54°F57°F58°F59°F59°F58°F54°F49°F48°F48°F49°F49°F49°F49°F48°F47°F47°F47°F47°F46°F
Cloudiness 1%0%1%2%2%2%3%0%0%2%3%4%6%17%34%56%67%73%78%100%100%100%100%98%82%5%5%6%13%18%30%100%82%66%58%60%57%92%81%87%90%92%93%29%22%35%29%24%
Visibility 6 mi6 mi6 mi6 mi6 mi6 mi6 mi6 mi6 mi6 mi6 mi6 mi6 mi6 mi6 mi6 mi6 mi6 mi6 mi6 mi6 mi6 mi6 mi6 mi6 mi6 mi6 mi6 mi6 mi6 mi6 mi6 mi6 mi6 mi6 mi6 mi6 mi6 mi6 mi6 mi6 mi6 mi6 mi6 mi6 mi6 mi6 mi6 mi
Precipitation 0%0%0%0%0%0%0%0%0%0%0%0%0%0%0%0%0%0%0%0%0%0%0%0%0%0%0%0%0%0%0%0%0%0%0%0%0%0%0%0%0%0%0%0%0%0%0%0%
Humidity 84%83%80%72%61%48%36%34%33%35%48%57%63%66%67%68%68%69%70%71%71%71%71%73%75%73%63%53%45%40%38%38%39%44%57%67%72%76%80%83%86%88%89%91%91%93%92%89%
Dew Point 29°F29°F29°F29°F29°F28°F26°F26°F26°F27°F32°F31°F32°F32°F33°F33°F33°F33°F33°F33°F34°F34°F34°F34°F33°F34°F36°F36°F36°F35°F35°F36°F36°F38°F41°F40°F41°F43°F44°F45°F46°F47°F46°F46°F46°F46°F46°F45°F
Pressure 30.15"30.15"30.15"30.18"30.21"30.21"30.21"30.18"30.18"30.18"30.21"30.21"30.24"30.27"30.27"30.27"30.27"30.27"30.27"30.27"30.27"30.24"30.24"30.27"30.27"30.3"30.3"30.3"30.3"30.27"30.24"30.21"30.21"30.21"30.18"30.21"30.21"30.21"30.18"30.18"30.18"30.18"30.15"30.15"30.15"30.15"30.12"30.12"
Wind Speed 4.8 mph4.5 mph6 mph5.8 mph5.2 mph4.8 mph4.7 mph4.1 mph3.5 mph2.4 mph1 mph2.3 mph3.4 mph3 mph2.5 mph2.4 mph2.5 mph2.4 mph2 mph1.5 mph2 mph1.7 mph1.2 mph1.3 mph1.5 mph1.5 mph1.5 mph3.2 mph4.1 mph4.3 mph4.6 mph4.4 mph5.4 mph6 mph6 mph5.5 mph5.2 mph4.9 mph4.5 mph4.9 mph4.7 mph4.5 mph4.2 mph4.1 mph4.3 mph4.1 mph4 mph4.2 mph
Wind
Direction
284°
WNW
292°
WNW
307°
NW
317°
NW
316°
NW
322°
NW
318°
NW
320°
NW
332°
NNW
342°
NNW
62°
ENE
94°
E
105°
ESE
111°
ESE
126°
SE
153°
SSE
166°
SSE
166°
SSE
199°
SSW
200°
SSW
167°
SSE
177°
S
227°
SW
271°
W
273°
W
263°
W
229°
SW
194°
SSW
194°
SSW
201°
SSW
190°
S
187°
S
177°
S
169°
S
157°
SSE
159°
SSE
158°
SSE
162°
SSE
170°
S
178°
S
199°
SSW
221°
SW
239°
WSW
267°
W
264°
W
250°
WSW
247°
WSW
238°
WSW

Daily Forecast

Date High Low Precip. Humidity
Today
Jan 18

Clear
54 °F
33 °F
0%
48%
Wednesday
Jan 19

Clouds
61 °F
41 °F
0%
40%
Thursday
Jan 20

Rain
69 °F
48 °F
62%
51%
Friday
Jan 21

Rain
55 °F
36 °F
100%
95%
Saturday
Jan 22

Rain
36 °F
35 °F
100%
96%
Sunday
Jan 23

Clouds
50 °F
33 °F
56%
53%
Monday
Jan 24

Clear
57 °F
34 °F
0%
40%
Tuesday
Jan 25

Clouds
58 °F
42 °F
0%
51%
Wednesday
Jan 26

Rain
49 °F
38 °F
20%
71%
Thursday
Jan 27

Clouds
49 °F
28 °F
0%
40%
Friday
Jan 28

Clear
55 °F
32 °F
0%
36%
Saturday
Jan 29

Clear
56 °F
36 °F
0%
38%
Sunday
Jan 30

Clear
55 °F
37 °F
0%
38%
Monday
Jan 31

Clear
60 °F
39 °F
0%
35%
Tuesday
Feb 1

Clouds
64 °F
46 °F
5%
64%
Wednesday
Feb 2

Clouds
71 °F
52 °F
0%
49%

Temperature 8-14 Day Outlook



Precipitation 8-14 Day Outlook




Quick Links
Savannah - Tybee Island News
Savannah - Tybee Island Photos
Savannah - Tybee Island Videos




About Us
Contact Us
Site Map
Search Site
Advertise With Us
   
Savannah.USCoast.info
THE SAVANNAH - TYBEE ISLAND WEBSITE

Copyright 2022, Coastal Town
Privacy    |    Legal